This is the latest recevied weather packets stored in our database for station/object WB6ANP. If no packets are shown the sender has not sent any weather packets the latest 1 day(s).
| Time | Temp. | Humidity | Pressure | Rain* | Wind** | Luminosity | Snow |
|---|---|---|---|---|---|---|---|
| 1777980554 | 19.44° C | 87% | 1003.9 hPa | 0 mm | 0.89 m/s, 207° | 0 W/m² | - |
| 1777980253 | 19.44° C | 87% | 1004 hPa | 0 mm | 3.13 m/s, 201° | 0 W/m² | - |
| 1777979949 | 19.44° C | 87% | 1003.6 hPa | 0 mm | 0.89 m/s, 241° | 0 W/m² | - |
| 1777979649 | 19.44° C | 87% | 1003.8 hPa | 0 mm | 2.24 m/s, 200° | 0 W/m² | - |
| 1777979345 | 19.44° C | 87% | 1003.7 hPa | 0 mm | 2.24 m/s, 212° | 0 W/m² | - |
| 1777979042 | 19.44° C | 87% | 1003.7 hPa | 0 mm | 1.79 m/s, 166° | 0 W/m² | - |
| 1777978739 | 20° C | 86% | 1003.6 hPa | 0 mm | 1.79 m/s, 195° | 0 W/m² | - |
| 1777978435 | 20° C | 86% | 1003.5 hPa | 0 mm | 1.79 m/s, 183° | 0 W/m² | - |
| 1777978132 | 20° C | 86% | 1003.6 hPa | 0 mm | 0.89 m/s, 180° | 0 W/m² | - |
| 1777977829 | 20° C | 86% | 1003.5 hPa | 0 mm | 1.79 m/s, 149° | 0 W/m² | - |
| 1777977525 | 20° C | 86% | 1003.7 hPa | 0 mm | 0.89 m/s, 156° | 0 W/m² | - |
| 1777977223 | 20° C | 86% | 1003.4 hPa | 0 mm | 1.79 m/s, 141° | 0 W/m² | - |
| 1777976920 | 20° C | 85% | 1003.7 hPa | 0 mm | 0.89 m/s, 229° | 0 W/m² | - |
| 1777976617 | 20° C | 85% | 1003.6 hPa | 0 mm | 3.58 m/s, 221° | 0 W/m² | - |
| 1777976313 | 20° C | 85% | 1003.6 hPa | 0 mm | 3.58 m/s, 209° | 0 W/m² | - |
| 1777976008 | 20° C | 84% | 1003.4 hPa | 0 mm | 0.89 m/s, 221° | 0 W/m² | - |
| 1777975704 | 20° C | 84% | 1003.6 hPa | 0 mm | 1.79 m/s, 157° | 0 W/m² | - |
| 1777975401 | 20° C | 84% | 1003.7 hPa | 0 mm | 1.79 m/s, 193° | 0 W/m² | - |
| 1777975096 | 20° C | 84% | 1003.7 hPa | 0 mm | 2.68 m/s, 201° | 0 W/m² | - |
| 1777974794 | 20° C | 83% | 1003.8 hPa | 0 mm | 2.68 m/s, 186° | 0 W/m² | - |
| 1777974490 | 20° C | 83% | 1003.7 hPa | 0 mm | 1.34 m/s, 197° | 0 W/m² | - |
| 1777974187 | 20° C | 83% | 1003.5 hPa | 0 mm | 3.58 m/s, 209° | 0 W/m² | - |
| 1777973882 | 20.56° C | 83% | 1003.9 hPa | 0 mm | 2.68 m/s, 209° | 0 W/m² | - |
| 1777973581 | 20.56° C | 82% | 1004 hPa | 0 mm | 3.58 m/s, 199° | 0 W/m² | - |
| 1777973277 | 20.56° C | 82% | 1003.7 hPa | 0 mm | 2.24 m/s, 199° | 0 W/m² | - |
* Rain latest hour (hover to see other rain measurements)
** Current wind speed in m/s (hover to see current wind gust speed)